Youngstown, OH

2:49 AM EST on December 16, 2019 (GMT -0500)
Youngstown-Warren Regional

Weather History for KYNG - September, 2019

Change the Weather History Date:

Friday, September 13, 2019

  Actual Average Record
Temperature  
Mean Temperature 74 °F 63 °F  
Max Temperature 84 °F 74 °F 93 °F (1952)
Min Temperature 64 °F 52 °F 35 °F (1964)
Degree Days  
Heating Degree Days 0 4  
Month to date heating degree days 9 34  
Since 1 July heating degree days 15 72  
Cooling Degree Days 10 2  
Month to date cooling degree days 51 33  
Year to date cooling degree days 715 519  
Growing Degree Days 24 (Base 50)    
Moisture  
Dew Point 64 °F    
Average Humidity 79    
Maximum Humidity 93    
Minimum Humidity 61    
Precipitation  
Precipitation 2.67 in 0.13 in 2.03 in (1980)
Month to date precipitation 4.05 1.64  
Year to date precipitation 38.57 27.86  
Snow  
Snow 0.00 in 0.00 in - ()
Month to date snowfall 0.0 0.0  
Since 1 July snowfall 0.0 0.0  
Since 1 September snowfall 0.0 0.0  
Snow Depth 0.00 in    
Sea Level Pressure  
Sea Level Pressure 30.15 in    
Wind  
Wind Speed 9 mph ()    
Max Wind Speed 22 mph    
Max Gust Speed 30 mph    
Visibility 8.9 miles    
Events Rain , Thunderstorm    
T = Trace of Precipitation, MM = Missing Value Source: Averaged Metar Reports

Daily Weather History Graph

Daily Weather History Graph

Search for Another Location

Airport or City:

Astronomy

Sep. 13, 2019 Rise Set
Actual Time 7:00 AM EDT 7:35 PM EDT
Civil Twilight 6:33 AM EDT 8:03 PM EDT
Nautical Twilight 6:00 AM EDT 8:36 PM EDT
Astronomical Twilight 5:26 AM EDT 9:09 PM EDT
Moon 7:49 PM EDT (9/13) 6:15 AM EDT (9/13)
Length of Visible Light 13h 30m
Length of Day
12h 34m
Full, 100% of the Moon is Illuminated
Sep 13
Full
Sep 14
Full
Sep 21
Last Quarter
Sep 28
New
Oct 5
First Quarter

Hourly Weather History & Observations

Time (EDT) Temp. Heat Index Dew Point Humidity Pressure Visibility Wind Dir Wind Speed Gust Speed Precip Events Conditions
12:32 AM 64.9 °F - 62.1 °F 90% 30.22 in 10.0 mi East 6.9 mph - N/A   Overcast
12:51 AM 64.9 °F - 62.1 °F 90% 30.20 in 10.0 mi ESE 6.9 mph - N/A   Overcast
1:51 AM 64.0 °F - 62.1 °F 93% 30.20 in 10.0 mi East 5.8 mph - N/A   Mostly Cloudy
2:51 AM 64.9 °F - 62.1 °F 90% 30.18 in 10.0 mi ESE 8.1 mph - N/A   Overcast
3:51 AM 66.0 °F - 62.1 °F 87% 30.17 in 10.0 mi ESE 10.4 mph - N/A   Overcast
4:51 AM 66.0 °F - 62.1 °F 87% 30.17 in 10.0 mi ESE 12.7 mph - N/A   Overcast
5:51 AM 64.9 °F - 62.1 °F 90% 30.18 in 10.0 mi SE 10.4 mph - N/A   Overcast
6:51 AM 64.9 °F - 61.0 °F 87% 30.19 in 10.0 mi ESE 10.4 mph - N/A   Overcast
7:10 AM 64.0 °F - 61.0 °F 90% 30.20 in 10.0 mi ESE 10.4 mph - N/A   Mostly Cloudy
7:51 AM 64.9 °F - 61.0 °F 87% 30.19 in 10.0 mi ESE 11.5 mph - N/A   Mostly Cloudy
8:51 AM 68.0 °F - 63.0 °F 84% 30.20 in 10.0 mi SE 11.5 mph - N/A   Mostly Cloudy
9:51 AM 71.1 °F - 64.0 °F 78% 30.21 in 10.0 mi SE 8.1 mph - N/A   Overcast
10:51 AM 73.9 °F - 64.9 °F 73% 30.19 in 10.0 mi SE 11.5 mph - N/A   Overcast
11:51 AM 78.1 °F - 66.9 °F 68% 30.18 in 10.0 mi SSE 13.8 mph - N/A   Overcast
12:51 PM 80.1 °F 82.7 °F 68.0 °F 67% 30.17 in 10.0 mi SE 11.5 mph - N/A   Overcast
1:51 PM 84.0 °F 87.8 °F 69.1 °F 61% 30.15 in 10.0 mi SE 9.2 mph - N/A   Overcast
2:51 PM 84.0 °F 87.8 °F 69.1 °F 61% 30.12 in 10.0 mi SSE 9.2 mph 19.6 mph N/A   Mostly Cloudy
3:51 PM 82.0 °F 85.9 °F 70.0 °F 67% 30.09 in 10.0 mi ESE 10.4 mph - N/A   Mostly Cloudy
4:51 PM 82.9 °F 86.5 °F 69.1 °F 63% 30.07 in 10.0 mi SSE 11.5 mph 21.9 mph N/A   Mostly Cloudy
5:51 PM 82.9 °F 87.0 °F 70.0 °F 65% 30.07 in 10.0 mi SE 8.1 mph - N/A   Mostly Cloudy
6:51 PM 80.1 °F 82.7 °F 68.0 °F 67% 30.08 in 10.0 mi SE 13.8 mph - N/A   Mostly Cloudy
7:51 PM 75.9 °F - 64.9 °F 69% 30.07 in 10.0 mi SE 18.4 mph 26.5 mph N/A   Mostly Cloudy
8:51 PM 73.0 °F - 63.0 °F 71% 30.08 in 10.0 mi SE 18.4 mph 26.5 mph N/A   Mostly Cloudy
9:25 PM 71.1 °F - 62.1 °F 73% 30.09 in 10.0 mi SE 15.0 mph 21.9 mph N/A Thunderstorm Thunderstorm
9:51 PM 71.1 °F - 62.1 °F 73% 30.08 in 10.0 mi SE 15.0 mph 26.5 mph N/A Thunderstorm Thunderstorm
10:51 PM 69.1 °F - 61.0 °F 75% 30.09 in 10.0 mi ESE 13.8 mph 23.0 mph 0.00 in Rain , Thunderstorm Light Thunderstorms and Rain
11:25 PM 66.9 °F - 63.0 °F 87% 30.17 in 1.8 mi WNW 9.2 mph 29.9 mph 0.09 in Rain , Thunderstorm Light Thunderstorms and Rain
11:31 PM 68.0 °F - 64.0 °F 87% 30.15 in 3.0 mi West 15.0 mph 20.7 mph 0.37 in Rain , Thunderstorm Heavy Thunderstorms and Rain
11:35 PM 68.0 °F - 64.0 °F 87% 30.16 in 1.0 mi WSW 13.8 mph 20.7 mph 0.45 in Rain , Thunderstorm Heavy Thunderstorms and Rain
11:51 PM 68.0 °F - 64.9 °F 90% 30.10 in 1.0 mi SSE 9.2 mph - 0.95 in Rain , Thunderstorm Heavy Thunderstorms and Rain